Home   Weather   Horw   Past weeks

Flag for Switzerland Past Weather in Horw, Lucerne, Switzerland — Yesterday and Last 2 Weeks

Now
44 °F

Quite cool.


Feels Like: 42 °F
Forecast: 34 / 65 °F
Wind: 3 mph from Southwest

Location: Giswil

Current Time: Apr 29, 2017 at 9:17:46 pm

Latest Report: Apr 29, 2017 at 8:00 pm


Visibility: N/A

Pressure: 30.02 "Hg

Humidity: 74%

Dew Point: 36 °F

Location of HorwLocation

Past Weather in Horw — Graph

°F

Horw Temperature Yesterday

Maximum temperature yesterday: 40 °F (at 5:00 pm)
Minimum temperature yesterday: 32 °F (at 1:00 am)
Average temperature yesterday: 34 °F

High & Low Weather Summary for the Past Weeks

 TemperatureHumidityPressure
High65 °F (Apr 24, 7:00 pm)100% (Apr 15, 8:00 pm)30.59 "Hg (Apr 15, 8:00 pm)
Low23 °F (Apr 21, 6:00 am)25% (Apr 21, 5:00 pm)29.73 "Hg (Apr 25, 11:00 pm)
Average43 °F82%30.15 "Hg
* Reported Apr 14 7:00 pm — Apr 29 7:00 pm, Horw, Weather by CustomWeather, © 2017

Note: Actual official high and low records may vary slightly from our data, if they occured in-between our weather recording intervals... More about our weather records

Advertising

Horw Weather History for the Previous 24 Hours

Scroll right to see more
 ConditionsComfort  
Time TempWeatherWind HumidityBarometerVisibility
7:00 pm
Sat, Apr 29
53 °FCool.1 mph47%29.98 "HgN/A
6:00 pm53 °FCool.1 mph41%29.99 "HgN/A
5:00 pm53 °FCool.1 mph42%30.01 "HgN/A
4:00 pm52 °FCool.1 mph39%30.02 "HgN/A
3:00 pm50 °FCool.2 mph42%30.04 "HgN/A
2:00 pm48 °FCool.1 mph50%30.05 "HgN/A
1:00 pm47 °FCool.2 mph50%30.07 "HgN/A
12:00 pm43 °FQuite cool.2 mph65%30.10 "HgN/A
11:00 am41 °FQuite cool.1 mph73%30.12 "HgN/A
10:00 am38 °FChilly.1 mph84%30.15 "HgN/A
9:00 am35 °FChilly.1 mph96%30.16 "HgN/A
8:00 am30 °FChilly.No wind99%30.18 "HgN/A
7:00 am26 °FChilly.2 mph99%30.21 "HgN/A
6:00 am26 °FChilly.1 mph99%30.20 "HgN/A
5:00 am27 °FChilly.1 mph100%30.21 "HgN/A
4:00 am28 °FChilly.1 mph100%30.20 "HgN/A
3:00 am28 °FChilly.1 mph99%30.20 "HgN/A
2:00 am31 °FChilly.2 mph99%30.19 "HgN/A
1:00 am30 °FChilly.3 mph99%30.19 "HgN/A
12:00 am32 °FChilly.2 mph99%30.19 "HgN/A
11:00 pm
Fri, Apr 28
34 °FChilly.2 mph99%30.19 "HgN/A
10:00 pm33 °FChilly.2 mph100%30.18 "HgN/A
9:00 pm35 °FChilly.2 mph99%30.15 "HgN/A
Weather by CustomWeather, © 2017

See weather overviewHow to use our weather pages